CW3999 Weather Reports


Display with metric or nautical units.
time (UTC)temp
F
wind
direction
speed
MPH
gust
MPH
rain 1hr
in
rain 24hr
in
rain mn
in
humidity
%
barometer
mb
20260904233318 61 150 0.0 0.0 0.00 0.02 0.02 100 1012.6
20260904232818 61 150 0.0 0.0 0.00 0.02 0.02 100 1012.4
20260904232313 62 177 0.0 0.0 0.00 0.02 0.02 100 1012.4
20260904231812 64 164 0.0 0.0 0.00 0.02 0.02 100 1012.3
20260904231312 65 218 0.0 0.0 0.00 0.02 0.02 15 1012.3
20260904230814 65 193 0.0 0.0 0.00 0.02 0.02 21 1012.1
20260904230311 65 193 0.0 0.0 0.00 0.02 0.02 14 1012.0
20260904225310 65 193 0.0 0.0 0.00 0.02 0.02 9 1011.9
20260904224809 64 193 0.0 0.0 0.00 0.02 0.02 19 1011.9
20260904223810 65 97 0.0 0.0 0.00 0.02 0.02 18 1011.8
20260904223310 65 97 0.0 0.0 0.00 0.02 0.02 11 1011.8
20260904222810 65 97 0.0 0.0 0.00 0.02 0.02 11 1011.8
20260904222310 66 97 0.0 0.0 0.00 0.02 0.02 9 1011.8
20260904221310 67 97 0.0 0.0 0.00 0.02 0.02 100 1011.8
20260904220310 67 97 0.0 0.0 0.00 0.02 0.02 22 1011.7
20260904215810 68 97 0.0 0.0 0.00 0.02 0.02 27 1011.7
20260904215305 68 97 0.0 0.0 0.00 0.02 0.02 27 1011.6
20260904214802 69 97 0.0 0.0 0.00 0.02 0.02 24 1011.6
20260904214302 68 186 0.0 0.0 0.00 0.02 0.02 15 1011.6
20260904213802 67 186 0.0 0.0 0.00 0.02 0.02 13 1011.6
20260904213300 67 186 0.0 0.0 0.00 0.02 0.02 11 1011.6
20260904212802 66 176 0.0 0.0 0.00 0.02 0.02 20 1011.5
20260904212302 67 196 0.0 0.0 0.00 0.02 0.02 20 1011.5
20260904211302 67 194 0.0 0.0 0.00 0.02 0.02 19 1011.3
20260904210802 67 194 0.0 0.0 0.00 0.02 0.02 5 1011.3
20260904210301 66 194 0.0 0.0 0.00 0.02 0.02 6 1011.3
20260904205802 66 194 0.0 0.0 0.00 0.02 0.02 10 1011.2
20260904205305 67 194 0.0 0.0 0.00 0.02 0.02 24 1011.3
20260904204303 67 152 0.0 0.0 0.00 0.02 0.02 24 1011.2
20260904203803 67 152 0.0 0.0 0.00 0.02 0.02 27 1011.2
20260904203304 67 78 0.0 0.0 0.00 0.02 0.02 26 1011.1
20260904202801 67 78 0.0 0.0 0.00 0.02 0.02 27 1011.2
20260904202306 68 78 0.0 0.0 0.00 0.02 0.02 28 1011.3
20260904201802 69 141 0.0 0.0 0.00 0.02 0.02 25 1011.2
20260904201302 68 159 0.0 0.0 0.00 0.02 0.02 18 1011.2
20260904200802 67 84 0.0 0.0 0.00 0.02 0.02 17 1011.2
20260904195802 66 76 0.0 0.0 0.00 0.02 0.02 16 1011.3
20260904195300 66 76 0.0 0.0 0.00 0.02 0.02 13 1011.3
20260904194802 66 76 0.0 0.0 0.00 0.02 0.02 13 1011.5
20260904193804 65 72 0.0 0.0 0.00 0.02 0.02 2 1011.5
20260904193303 65 72 0.0 0.0 0.00 0.02 0.02 100 1011.6
20260904192803 64 72 0.0 0.0 0.00 0.02 0.02 100 1011.6
20260904191732 64 72 0.0 0.0 0.00 0.02 0.02 100 1011.6
20260904191230 64 72 0.0 0.0 0.00 0.02 0.02 100 1011.6
20260904190731 64 72 0.0 0.0 0.00 0.02 0.02 100 1011.7
20260904190230 63 72 0.0 0.0 0.00 0.02 0.02 100 1011.8
20260904185730 62 72 0.0 0.0 0.00 0.02 0.02 100 1011.7
20260904185230 62 71 0.0 0.0 0.00 0.02 0.02 100 1011.8
20260904184729 61 55 0.0 0.0 0.00 0.02 0.02 100 1011.7
20260904183230 60 163 0.0 0.0 0.00 0.02 0.02 100 1011.6
20260904182731 60 163 0.0 0.0 0.00 0.02 0.02 100 1011.6
20260904182231 60 166 0.0 0.0 0.00 0.02 0.02 100 1011.6
20260904181732 59 166 0.0 0.0 0.00 0.02 0.02 100 1011.6
20260904181230 59 166 0.0 0.0 0.00 0.02 0.02 100 1011.5
20260904180232 59 166 0.0 0.0 0.00 0.02 0.02 100 1011.4
20260904175731 58 166 0.0 0.0 0.00 0.02 0.02 100 1011.4
20260904175231 58 166 0.0 0.0 0.00 0.02 0.02 100 1011.3
20260904174730 58 167 0.0 0.0 0.00 0.02 0.02 100 1011.2
20260904174231 58 167 0.0 0.0 0.00 0.02 0.02 100 1011.2
20260904173731 57 233 0.0 0.0 0.00 0.02 0.02 100 1011.2
20260904173229 57 225 0.0 0.0 0.00 0.02 0.02 100 1011.3
20260904172230 57 224 0.0 0.0 0.00 0.02 0.02 100 1011.3
20260904171730 57 224 0.0 0.0 0.00 0.02 0.02 100 1011.2
20260904171230 56 224 0.0 0.0 0.00 0.02 0.02 100 1011.2
20260904170231 56 224 0.0 0.0 0.00 0.02 0.02 100 1011.2
20260904165730 56 224 0.0 0.0 0.00 0.02 0.02 100 1011.2
20260904165229 56 210 0.0 0.0 0.00 0.02 0.02 100 1011.1
20260904164231 56 209 0.0 0.0 0.00 0.02 0.02 100 1011.1
20260904163732 56 209 0.0 0.0 0.00 0.02 0.02 100 1011.0
20260904163231 56 209 0.0 0.0 0.00 0.02 0.02 100 1011.0
20260904162231 56 209 0.0 0.0 0.00 0.02 0.02 100 1011.0
20260904161732 56 209 0.0 0.0 0.00 0.02 0.02 100 1011.0
20260904161232 56 209 0.0 0.0 0.00 0.02 0.02 100 1011.0
20260904160731 55 209 0.0 0.0 0.00 0.02 0.02 100 1011.0
20260904160229 56 209 0.0 0.0 0.00 0.02 0.02 100 1011.0
20260904155729 55 209 0.0 0.0 0.00 0.02 0.02 100 1011.0
20260904155228 55 209 0.0 0.0 0.00 0.02 0.02 100 1011.0
20260904154730 55 209 0.0 0.0 0.00 0.02 0.02 100 1011.0
20260904153732 55 209 0.0 0.0 0.00 0.02 0.02 100 1011.0
20260904153232 55 209 0.0 0.0 0.00 0.02 0.02 100 1010.9
20260904152725 55 209 0.0 0.0 0.00 0.02 0.02 100 1010.9
20260904152218 55 209 0.0 0.0 0.00 0.02 0.02 100 1010.9
20260904151213 54 209 0.0 0.0 0.00 0.02 0.02 100 1010.8
20260904150212 54 209 0.0 0.0 0.00 0.02 0.02 100 1010.7
20260904145713 54 209 0.0 0.0 0.00 0.02 0.02 100 1010.7
20260904145214 54 209 0.0 0.0 0.00 0.02 0.02 100 1010.6
20260904144712 54 209 0.0 0.0 0.00 0.02 0.02 100 1010.5
20260904144214 54 209 0.0 0.0 0.00 0.02 0.02 100 1010.5
20260904143203 54 209 0.0 0.0 0.00 0.02 0.02 100 1010.3
20260904142204 53 209 0.0 0.0 0.00 0.02 0.02 100 1010.1
20260904141202 53 209 0.0 0.0 0.00 0.02 0.02 100 1010.1
20260904140701 53 209 0.0 0.0 0.00 0.02 0.02 100 1010.1
20260904140203 53 209 0.0 0.0 0.00 0.02 0.02 100 1010.0
20260904135202 53 209 0.0 0.0 0.01 0.02 0.02 100 1010.0
20260904134704 53 209 0.0 0.0 0.01 0.02 0.02 100 1009.9
20260904134205 53 209 0.0 0.0 0.01 0.02 0.02 100 1009.9
20260904133703 53 209 0.0 0.0 0.01 0.02 0.02 100 1009.9
20260904133132 53 209 0.0 0.0 0.01 0.02 0.02 100 1009.8
20260904132632 53 209 0.0 0.0 0.01 0.02 0.02 100 1009.7
20260904132133 53 209 0.0 0.0 0.02 0.02 0.02 100 1009.7
20260904131632 53 209 0.0 0.0 0.02 0.02 0.02 100 1009.6
20260904131130 53 209 0.0 0.0 0.02 0.02 0.02 100 1009.6
20260904130130 53 209 0.0 0.0 0.02 0.02 0.02 100 1009.5
20260904125630 53 209 0.0 0.0 0.01 0.01 0.02 100 1009.4
20260904125129 53 209 0.0 0.0 0.01 0.01 0.01 100 1009.4
20260904124132 53 209 0.0 0.0 0.01 0.01 0.01 100 1009.4
20260904123132 53 209 0.0 0.0 0.01 0.01 0.01 100 1009.4
20260904122631 53 209 0.0 0.0 0.01 0.01 0.01 100 1009.2
20260904122132 53 209 0.0 0.0 0.00 0.00 0.00 100 1009.3
20260904121131 53 209 0.0 0.0 0.00 0.00 0.00 100 1009.3
20260904120630 53 209 0.0 0.0 0.00 0.00 0.00 100 1009.2
20260904120130 53 209 0.0 0.0 0.00 0.00 0.00 100 1009.2
20260904115630 53 209 0.0 0.0 0.00 0.00 0.00 100 1009.3
20260904115129 53 209 0.0 0.0 0.00 0.00 0.00 100 1009.3
20260904114629 53 209 0.0 0.0 0.00 0.00 0.00 100 1009.3
20260904113131 53 209 0.0 0.0 0.00 0.00 0.00 100 1009.1
20260904112631 53 209 0.0 0.0 0.00 0.00 0.00 100 1009.1
20260904112131 53 209 0.0 0.0 0.00 0.00 0.00 100 1009.0
20260904111630 53 209 0.0 0.0 0.00 0.00 0.00 100 1008.9
20260904111131 53 209 0.0 0.0 0.00 0.00 0.00 100 1008.9
20260904110630 53 209 0.0 0.0 0.00 0.00 0.00 100 1008.9
20260904110130 53 209 0.0 0.0 0.00 0.00 0.00 100 1008.9
20260904105630 53 209 0.0 0.0 0.00 0.00 0.00 100 1008.9
20260904104612 53 209 0.0 0.0 0.00 0.00 0.00 100 1008.9
20260904104114 53 209 0.0 0.0 0.00 0.00 0.00 100 1008.8
20260904103611 53 209 0.0 0.0 0.00 0.00 0.00 100 1008.8
20260904103103 53 209 0.0 0.0 0.00 0.00 0.00 100 1008.8
20260904102102 53 209 0.0 0.0 0.00 0.00 0.00 100 1008.8
20260904101102 53 209 0.0 0.0 0.00 0.00 0.00 100 1008.7
20260904100602 53 209 0.0 0.0 0.00 0.00 0.00 100 1008.8
20260904095603 53 209 0.0 0.0 0.00 0.00 0.00 100 1008.7
20260904093604 53 209 0.0 0.0 0.00 0.00 0.00 100 1008.5
20260904092603 53 209 0.0 0.0 0.00 0.00 0.00 100 1008.5
20260904092102 53 209 0.0 0.0 0.00 0.00 0.00 100 1008.4
20260904091600 54 209 0.0 0.0 0.00 0.00 0.00 100 1008.4
20260904091102 54 209 0.0 0.0 0.00 0.00 0.00 100 1008.4
20260904090602 54 209 0.0 0.0 0.00 0.00 0.00 100 1008.4
20260904085603 54 209 0.0 0.0 0.00 0.00 0.00 100 1008.4
20260904085102 54 209 0.0 0.0 0.00 0.00 0.00 100 1008.4
20260904084603 54 209 0.0 0.0 0.00 0.00 0.00 100 1008.4
20260904084104 54 209 0.0 0.0 0.00 0.00 0.00 100 1008.4
20260904083603 54 209 0.0 0.0 0.00 0.00 0.00 100 1008.3
20260904083102 54 209 0.0 0.0 0.00 0.00 0.00 100 1008.4
20260904082604 54 209 0.0 0.0 0.00 0.00 0.00 100 1008.4
20260904081600 55 209 0.0 0.0 0.00 0.00 0.00 100 1008.4
20260904081103 55 209 0.0 0.0 0.00 0.00 0.00 100 1008.5
20260904080601 55 209 0.0 0.0 0.00 0.00 0.00 100 1008.5
20260904075103 55 209 0.0 0.0 0.00 0.00 0.00 100 1008.5
20260904074602 55 209 0.0 0.0 0.00 0.00 0.00 100 1008.5
20260904074102 55 209 0.0 0.0 0.00 0.00 0.00 100 1008.5
20260904073603 55 209 0.0 0.0 0.00 0.00 0.00 100 1008.5
20260904072602 55 209 0.0 0.0 0.00 0.00 0.00 100 1008.4
20260904072101 55 209 0.0 0.0 0.00 0.00 0.00 100 1008.4
20260904071602 55 209 0.0 0.0 0.00 0.00 0.00 100 1008.4
20260904070603 55 209 0.0 0.0 0.00 0.00 0.00 100 1008.3
20260904065603 56 209 0.0 0.0 0.00 0.00 0.00 100 1008.3
20260904065102 56 209 0.0 0.0 0.00 0.00 0.00 100 1008.4
20260904064602 56 209 0.0 0.0 0.00 0.00 0.00 100 1008.4
20260904064102 56 209 0.0 0.0 0.00 0.00 0.00 100 1008.4
20260904063602 56 209 0.0 0.0 0.00 0.00 0.00 100 1008.3
20260904063101 56 209 0.0 0.0 0.00 0.00 0.00 100 1008.4
20260904062603 56 209 0.0 0.0 0.00 0.00 0.00 100 1008.4
20260904061101 56 209 0.0 0.0 0.00 0.00 0.00 100 1008.4
20260904055602 56 209 0.0 0.0 0.00 0.00 0.00 100 1008.3
20260904055102 56 209 0.0 0.0 0.00 0.00 0.00 100 1008.3
20260904054603 56 209 0.0 0.0 0.00 0.00 0.00 100 1008.4
20260904053604 57 209 0.0 0.0 0.00 0.00 0.00 100 1008.4
20260904053103 57 209 0.0 0.0 0.00 0.00 0.00 100 1008.5
20260904052602 57 209 0.0 0.0 0.00 0.00 0.00 100 1008.5
20260904052102 57 209 0.0 0.0 0.00 0.00 0.00 100 1008.5
20260904051103 57 209 0.0 0.0 0.00 0.00 0.00 100 1008.5
20260904050601 57 209 0.0 0.0 0.00 0.00 0.00 100 1008.5
20260904050104 57 209 0.0 0.0 0.00 0.00 0.00 100 1008.6
20260904045603 57 209 0.0 0.0 0.00 0.00 0.00 100 1008.5
20260904045102 57 209 0.0 0.0 0.00 0.00 0.00 100 1008.6
20260904044603 57 209 0.0 0.0 0.00 0.00 0.00 100 1008.6
20260904044102 57 209 0.0 0.0 0.00 0.00 0.00 100 1008.6
20260904043604 57 209 0.0 0.0 0.00 0.00 0.00 100 1008.5
20260904043102 57 209 0.0 0.0 0.00 0.00 0.00 100 1008.5
20260904042102 57 209 0.0 0.0 0.00 0.00 0.00 100 1008.5
20260904041602 57 209 0.0 0.0 0.00 0.00 0.00 100 1008.5
20260904040602 57 209 0.0 0.0 0.00 0.00 0.00 100 1008.6
20260904035603 57 209 0.0 0.0 0.00 0.00 0.00 100 1008.5
20260904035104 57 209 0.0 0.0 0.00 0.00 0.00 100 1008.5
20260904034604 57 209 0.0 0.0 0.00 0.00 0.00 100 1008.4
20260904034103 57 209 0.0 0.0 0.00 0.00 0.00 100 1008.3
20260904033602 57 209 0.0 0.0 0.00 0.00 0.00 100 1008.3
20260904033104 57 209 0.0 0.0 0.00 0.00 0.00 100 1008.2
20260904032103 58 209 0.0 0.0 0.00 0.00 0.00 100 1008.1
20260904031602 58 209 0.0 0.0 0.00 0.00 0.00 100 1008.1
20260904031102 58 209 0.0 0.0 0.00 0.00 0.00 100 1008.1
20260904030602 58 209 0.0 0.0 0.00 0.00 0.00 100 1008.0
20260904025602 58 209 0.0 0.0 0.00 0.00 0.00 100 1007.9
20260904025100 58 209 0.0 0.0 0.00 0.00 0.00 100 1007.9
20260904024549 58 209 0.0 0.0 0.00 0.00 0.00 100 1007.9
20260904024041 58 209 0.0 0.0 0.00 0.00 0.00 100 1007.8
20260904023030 58 209 0.0 0.0 0.00 0.00 0.00 100 1007.9
20260904022531 58 209 0.0 0.0 0.00 0.00 0.00 100 1007.8
20260904022030 59 209 0.0 0.0 0.00 0.00 0.00 100 1007.8
20260904021530 59 209 0.0 0.0 0.00 0.00 0.00 100 1007.8
20260904021030 59 209 0.0 0.0 0.00 0.00 0.00 100 1007.8
20260904020530 59 209 0.0 0.0 0.00 0.00 0.00 100 1007.7
20260904015531 60 209 0.0 0.0 0.00 0.00 0.00 100 1007.7
20260904015020 60 209 0.0 0.0 0.00 0.00 0.00 100 1007.8
20260904014521 60 209 0.0 0.0 0.00 0.00 0.00 100 1007.8
20260904014017 60 209 0.0 0.0 0.00 0.00 0.00 100 1007.8
20260904013517 60 209 0.0 0.0 0.00 0.00 0.00 100 1007.8
20260904013012 60 209 0.0 0.0 0.00 0.00 0.00 100 1007.9
20260904012505 60 209 0.0 0.0 0.00 0.00 0.00 100 1007.8
20260904011502 60 209 0.0 0.0 0.00 0.00 0.00 100 1007.8
20260904011003 60 211 0.0 0.0 0.00 0.00 0.00 100 1007.7
20260904010502 61 211 0.0 0.0 0.00 0.00 0.00 100 1007.7
20260904005502 61 232 0.0 0.0 0.00 0.00 0.00 100 1007.8
20260904005004 61 238 0.0 0.0 0.00 0.00 0.00 100 1007.9
20260904004503 61 238 0.0 0.0 0.00 0.00 0.00 100 1007.9
20260904004002 61 238 0.0 0.0 0.00 0.00 0.00 100 1007.8
20260904003503 61 192 0.0 0.0 0.00 0.00 0.00 100 1007.8
20260904003003 62 192 0.0 0.0 0.00 0.00 0.00 100 1007.8
20260904002503 62 121 0.0 0.0 0.00 0.00 0.00 100 1007.7
20260904002001 62 190 0.0 0.0 0.00 0.00 0.00 100 1007.8
20260904001502 62 202 0.0 0.0 0.00 0.00 0.00 100 1007.8
20260904000500 61 159 0.0 0.0 0.00 0.00 0.00 100 1007.9
20260904000000 61 212 0.0 0.0 0.00 0.00 0.00 100 1007.9
20260903235504 61 105 0.0 0.0 0.00 0.00 0.00 100 1007.9
20260903235004 61 105 0.0 0.0 0.00 0.00 0.00 100 1007.8